EW4169 Weather Reports


time (UTC)temp
C
wind
direction
speed
KPH
gust
KPH
rain 1hr
cm
rain 24hr
cm
rain mn
cm
humidity
%
barometer
mb
20260504044517 4 256 0.0 1.6 0.00 0.00 0.00 71 1013.4
20260504043042 5 256 0.0 1.6 0.00 0.00 0.00 68 1013.3
20260504041521 5 259 3.2 4.8 0.00 0.00 0.00 68 1013.3
20260504040100 5 193 0.0 0.0 0.00 0.00 0.00 67 1013.4
20260504034516 5 193 0.0 0.0 0.00 0.00 0.00 66 1013.2
20260504033036 5 193 0.0 1.6 0.00 0.00 0.00 64 1013.3
20260504031514 6 208 0.0 3.2 0.00 0.00 0.00 64 1013.2
20260504030036 6 205 0.0 1.6 0.00 0.00 0.00 65 1013.2
20260504024515 6 205 0.0 1.6 0.00 0.00 0.00 65 1013.3
20260504023038 5 205 0.0 1.6 0.00 0.00 0.00 66 1013.3
20260504021520 6 205 0.0 1.6 0.00 0.00 0.00 65 1013.4
20260504020046 6 205 0.0 1.6 0.00 0.00 0.00 63 1013.4
20260504014525 6 205 0.0 0.0 0.00 0.00 0.00 59 1013.2
20260504013044 7 205 0.0 0.0 0.00 0.00 0.00 55 1013.2
20260504011524 8 205 0.0 3.2 0.00 0.00 0.00 51 1013.0
20260504010052 9 212 0.0 3.2 0.00 0.00 0.00 49 1013.1
20260504004542 10 207 0.0 6.4 0.00 0.00 0.00 47 1012.9
20260504003100 10 226 6.4 17.7 0.00 0.00 0.00 46 1012.8
20260504001526 11 238 6.4 17.7 0.00 0.00 0.00 44 1012.7
20260504000005 11 253 4.8 19.3 0.00 0.00 0.00 43 1012.7
20260503234518 12 224 3.2 19.3 0.00 0.00 0.00 42 1012.6
20260503233046 12 270 4.8 16.1 0.00 0.00 0.00 40 1012.6
20260503231524 12 279 8.0 24.1 0.00 0.00 0.00 40 1012.6
20260503230044 12 238 12.9 30.6 0.00 0.00 0.00 39 1012.6
20260503224512 12 224 9.7 25.7 0.00 0.00 0.00 42 1012.6
20260503223048 12 268 14.5 22.5 0.00 0.00 0.00 39 1012.6
20260503221534 12 231 8.0 22.5 0.00 0.00 0.00 41 1012.6
20260503220052 12 253 11.3 32.2 0.00 0.00 0.00 41 1012.8
20260503214518 12 238 14.5 24.1 0.00 0.00 0.00 39 1012.8
20260503213052 12 277 14.5 29.0 0.00 0.00 0.00 40 1012.7
20260503211512 12 280 20.9 30.6 0.00 0.00 0.00 38 1012.7
20260503210046 12 272 14.5 30.6 0.00 0.00 0.00 40 1012.7
20260503204519 12 234 11.3 25.7 0.00 0.00 0.00 38 1012.8
20260503203047 12 293 12.9 29.0 0.00 0.00 0.00 39 1012.9
20260503201600 12 284 19.3 30.6 0.00 0.00 0.00 40 1013.0
20260503201502 12 270 16.1 30.6 0.00 0.00 0.00 39 1013.0
20260503200047 12 231 16.1 33.8 0.00 0.00 0.00 40 1013.2
20260503194523 12 272 14.5 29.0 0.00 0.00 0.00 41 1013.3
20260503193049 12 295 17.7 32.2 0.00 0.00 0.00 38 1013.5
20260503191530 11 262 17.7 37.0 0.00 0.00 0.00 42 1013.7
20260503190011 12 275 20.9 33.8 0.00 0.00 0.00 41 1013.9
20260503184543 11 264 11.3 29.0 0.00 0.00 0.00 41 1013.9
20260503183016 11 273 16.1 27.4 0.00 0.00 0.00 42 1014.1
20260503181538 11 257 12.9 30.6 0.00 0.00 0.00 42 1014.2
20260503180020 11 269 12.9 32.2 0.00 0.00 0.00 46 1014.2
20260503174556 11 266 11.3 24.1 0.00 0.00 0.00 45 1014.4
20260503173023 10 258 17.7 29.0 0.00 0.00 0.00 46 1014.4
20260503171557 10 275 16.1 30.6 0.00 0.00 0.00 43 1014.6
20260503081513 1 235 1.6 11.3 0.00 0.00 0.00 73 1014.6
20260503071521 1 293 8.0 14.5 0.00 0.00 0.00 72 1014.2
20260503070113 2 289 4.8 16.1 0.00 0.00 0.00 72 1014.2
20260503054546 2 280 6.4 12.9 0.00 0.03 0.00 68 1014.3
20260503053022 2 278 1.6 8.0 0.00 0.03 0.00 69 1014.3
20260503051548 3 279 3.2 6.4 0.00 0.03 0.00 67 1014.4
20260503050024 3 274 8.0 16.1 0.00 0.05 0.00 65 1014.5